Tracking 35237 objects as of 6-Sep-2026
HD Live streaming from Space Station
objects crossing your sky now

GEESAT 2-07

Track GEESAT 2-07 now!
10-day predictions


NORAD ID: 58911
Int'l Code: 2024-023G
Launch date: February 2, 2024
Source: People's Republic of China (PRC)
Launch site: Xichang Space Center, China (XSC)
Your satellite tracking list
Your tracking list is empty




NASA's NSSDC Master Catalog

Two Line Element Set (TLE):
1 58911U 24023G   26248.75738735  .00000650  00000-0  10568-3 0  9996
2 58911  50.0075 341.5978 0009860   7.8615 352.2476 14.83442221140870
Source of the keplerian elements: AFSPC